SCP
0 0 0 0 0 0 0 0 0 0 0 0 0 0 0 0 0 0 0 0 0 0 0 0 0 0 0 0 0 0 0 0 0 0 0 0 0 0
0 0 0 0 0 0 0 0 0 0 0 0 0 0 0 0 0 0 0 0 0 0 0 0 0 0 0 0 0 0 0 0 0 0 0 0 0 0
0 0 0 0 0 0 0 0 0 0 0 0 0 0 0 0 0 0 0 0 0 0 0 0 0 0 0 0 0 0 0 0 0 0 0 0 0 0
0 0 0 0 0 0 0 0 0 0 0 0 0 0 0 0 0 0 0 0 0 0 0 0 0 0 0 0 0 0 0 0 0 0 0 0 0 0
0 0 0 0 0 0 0 0 0 0 0 0 0 0 0 0 0 0 0 0 0 0 0 0 0 0 0 0 0 0 0 0 0 0 0 0 0 0
0 0 0 0 0 0 0 0 0 0 0 0 0 0 0 0 0 0 0 0 0 0 0 0 0 0 0 0 0 0 0 0 0 0 0 0 0 0
0 0 0 0 0 0 0 0 0 0 0 0 0 0 0 0 0 0 0 0 0 0 0 0 0 0 0 0 0 0 0 0 0 0 0 0 0 0
0 0 0 0 0 0 0 0 0 0 0 0 0 0 0 0 0 0 0 0 0 0 0 0 0 0 0 0 0 0 0 0 0 0 0 0 0 0
0 0 0 0 0 0 0 0 0 0 0 0 0 0 0 0 0 0 0 0 0 0 0 0 0 0 0 0 0 0 0 0 0 0 0 0 0 0
0 0 0 0 0 0 0 0 0 0 0 0 0 0 0 0 0 0 0 0 0 0 0 0 0 0 0 0 0 0 0 0 0 0 0 0 0 0
0 0 0 0 0 0 0 0 0 0 0 0 0 0 0 0 0 0 0 0 0 0 0 0 0 0 0 0 0 0 0 0 0 0 0 0 0 0
0 0 0 0 0 0 0 0 0 0 0 0 0 0 0 0 0 0 0 0 0 0 0 0 0 0 0 0 0 0 0 0 0 0 0 0 0 0
0 0 0 0 0 0 0 0 0 0 0 0 0 0 0 0 0 0 0 0 0 0 0 0 0 0 0 0 0 0 0 0 0 0 0 0 0 0
0 0 0 0 0 0 0 0 0 0 0 0 0 0 0 0 0 0 0 0 0 0 0 0 0 0 0 0 0 0 0 0 0 0 0 0 0 0
0 0 0 0 0 0 0 0 0 0 0 0 0 0 0 0 0 0 0 0 0 0 0 0 0 0 0 0 0 0 0 0 0 0 0 0 0 0
0 0 0 0 0 0 0 0 0 0 0 0 0 0 0 0 0 0 0 0 0 0 0 0 0 0 0 0 0 0 0 0 0 0 0 0 0 0
0 0 0 0 0 0 0 0 0 0 0 0 0 0 0 0 0 0 0 0 0 0 0 0 0 0 0 0 0 0 0 0 0 0 0 0 0 0
0 0 0 0 0 0 0 0 0 0 0 0 0 0 0 0 0 0 0 0 0 0 0 0 0 0 0 0 0 0 0 0 0 0 0 0 0 0
0 0 0 0 0 0 0 0 0 0 0 0 0 0 0 0 0 0 0 0 0 0 0 0 0 0 0 0 0 0 0 0 0 0 0 0 0 0
0 0 0 0 0 0 0 0 0 0 0 0 0 0 0 0 0 0 0 0 0 0 0 0 0 0 0 0 0 0 0 0 0 0 0 0 0 0
0 0 0 0 0 0 0 0 0 0 0 0 0 0 0 0 0 0 0 0 0 0 0 0 0 0 0 0 0 0 0 0 0 0 0 0 0 0
0 0 0 0 0 0 0 0 0 0 0 0 0 0 0 0 0 0 0 0 0 0 0 0 0 0 0 0 0 0 0 0 0 0 0 0 0 0
0 0 0 0 0 0 0 0 0 0 0 0 0 0 0 0 0 0 0 0 0 0 0 0 0 0 0 0 0 0 0 0 0 0 0 0 0 0
Wind_Speed
3 3 3 2 2 2 2 2 2 2 3 2 1 1 1 2 3 3 3 7 8 8 8 8 8 8 9 9 9 9 9 9 9 9 9 10 10 10
3 4 3 2 2 2 2 2 2 2 2 2 1 1 0 1 2 2 2 6 8 9 9 10 10 9 9 9 9 9 9 9 10 10 10 10 10 10
4 4 3 3 2 2 2 2 2 1 3 2 1 1 1 2 2 2 3 3 5 9 10 10 10 10 9 9 9 8 8 8 8 8 9 10 10 10
4 4 4 3 3 3 3 3 2 2 3 3 2 2 2 3 3 3 3 3 3 7 10 11 10 10 10 9 9 9 9 8 8 8 9 10 10 10
4 3 3 3 3 3 3 3 3 3 2 3 3 2 2 2 2 3 3 2 3 5 8 9 10 10 10 9 9 9 9 8 8 8 9 9 10 10
3 2 3 3 4 3 4 3 3 3 3 3 3 2 2 2 2 2 2 2 2 3 4 5 8 10 11 10 10 10 9 9 8 8 9 9 9 10
3 3 3 3 3 3 4 3 3 3 3 3 3 2 2 1 2 2 2 2 3 3 2 3 4 4 6 9 11 11 11 11 10 10 9 9 9 9
3 3 4 4 4 4 5 4 4 3 3 3 3 3 3 2 1 2 2 2 3 2 2 3 3 4 5 6 10 12 13 12 11 11 10 10 10 10
3 3 5 5 4 3 4 5 5 6 6 4 5 4 3 2 2 3 2 3 4 3 2 4 3 4 4 5 11 13 13 12 12 11 11 10 11 10
4 4 4 3 4 3 3 4 4 4 6 6 5 5 4 3 3 4 4 4 4 4 3 4 3 3 3 3 9 12 12 12 13 12 11 10 10 10
5 5 5 5 5 4 4 4 4 4 5 6 6 6 6 6 4 2 3 3 4 3 2 3 3 3 3 3 5 11 12 12 12 12 11 10 10 8
4 4 5 5 5 5 4 4 4 4 4 4 4 6 7 7 8 6 5 4 4 3 2 2 2 2 3 2 2 4 6 9 11 11 11 10 9 5
4 3 2 3 4 5 5 4 5 4 4 4 4 4 5 5 6 6 6 5 4 3 2 1 2 2 2 2 2 3 4 4 5 6 9 11 10 8
4 2 2 4 4 5 5 6 6 5 3 4 4 4 4 4 4 5 6 6 5 5 4 3 2 2 2 3 3 2 2 2 3 4 4 7 9 11
3 2 2 4 4 5 8 8 6 4 4 5 5 4 4 3 3 2 3 4 5 5 5 5 4 3 3 3 3 2 2 2 2 2 3 3 4 4
3 2 3 5 5 5 5 5 5 5 5 4 4 3 3 3 3 2 2 3 3 3 4 5 5 4 4 4 3 2 2 2 2 2 2 2 3 4
2 3 3 3 3 4 4 4 4 4 5 5 5 4 4 3 3 2 2 2 2 3 3 3 3 4 4 3 3 3 3 2 2 2 2 2 2 2
3 4 4 4 4 5 4 4 4 5 5 5 5 5 4 4 3 2 3 3 3 3 2 2 2 2 2 3 4 4 3 3 2 2 2 2 2 2
3 4 4 4 4 5 5 5 4 4 4 4 4 4 4 3 3 3 3 3 3 3 2 2 3 3 3 3 3 3 3 2 2 2 2 2 2 2
5 5 5 5 5 5 5 4 4 3 3 3 3 3 3 3 3 3 3 3 3 2 2 3 3 3 3 3 2 2 3 2 1 2 2 1 1 1
5 5 5 5 5 5 4 4 3 3 3 3 3 3 3 3 3 3 3 3 3 3 3 3 3 4 3 2 1 1 1 2 2 1 2 2 2 1
5 5 5 5 5 4 3 3 3 3 2 2 3 3 3 3 3 3 3 3 3 3 3 2 2 2 2 2 2 2 1 1 1 1 1 2 2 2
5 5 4 4 3 3 2 3 3 2 2 2 2 3 3 3 3 3 3 3 3 3 2 1 1 1 1 2 2 1 2 2 2 1 1 2 4 4
Wind_Direction
235 240 248 261 266 274 258 235 239 265 261 259 227 175 175 162 163 193 194 197 201 202 204 210 217 223 227 231 234 235 237 240 243 245 245 245 243 242
232 242 246 253 258 261 257 258 246 244 258 249 247 208 179 231 167 197 220 211 209 208 208 212 215 219 223 227 230 234 239 241 243 244 243 244 242 240
237 241 242 262 269 278 272 264 260 251 258 266 244 218 214 231 198 222 230 213 209 211 208 209 210 214 218 222 225 230 236 238 237 239 242 243 242 241
236 239 244 250 250 266 277 276 271 261 251 259 251 242 239 219 211 227 244 229 212 210 210 209 211 214 216 219 223 227 229 231 234 239 241 242 240 240
230 232 239 250 257 257 261 265 266 265 249 250 256 246 243 238 225 241 249 254 244 210 210 210 213 215 214 215 221 224 225 227 232 239 244 245 243 241
236 233 239 242 250 258 261 260 266 269 261 254 248 246 243 237 220 240 257 249 256 247 228 209 212 215 213 213 217 220 222 222 227 234 240 244 243 242
242 235 241 245 251 254 266 273 275 273 271 268 261 255 249 249 241 248 259 263 254 241 241 223 210 213 214 219 220 219 219 220 222 228 236 239 239 239
237 240 241 234 230 231 240 245 252 259 272 272 273 263 258 260 266 269 271 280 275 245 246 256 230 221 212 208 212 212 218 220 221 225 232 236 234 235
237 240 251 246 227 225 231 238 241 246 243 244 262 269 269 263 261 270 265 266 268 264 269 268 251 247 230 219 204 207 212 217 220 223 227 232 231 231
246 243 248 249 253 247 248 244 242 247 242 237 241 251 257 260 243 245 253 262 266 257 239 257 258 253 251 227 204 202 209 216 220 221 224 231 232 231
246 241 237 237 232 234 244 250 253 255 252 245 230 232 240 246 244 252 255 257 270 265 237 237 254 262 244 232 216 206 211 215 219 221 222 228 234 235
252 243 239 234 220 218 233 244 253 263 275 265 248 242 239 238 229 222 233 244 260 264 242 241 254 267 272 239 221 204 216 221 223 226 224 225 224 224
253 247 238 191 204 221 234 243 243 262 274 268 252 243 238 231 222 219 219 224 238 252 252 251 276 271 262 275 252 219 207 202 205 221 224 225 221 215
265 260 230 194 214 232 237 240 245 257 263 266 258 251 245 238 228 216 212 217 223 232 245 240 249 254 269 284 285 273 235 213 199 201 204 210 223 228
274 276 243 228 237 241 239 240 242 246 252 257 256 251 246 238 228 218 217 222 226 235 236 226 226 240 243 254 269 276 283 264 220 205 199 193 205 210
259 258 235 231 246 252 248 237 232 237 242 254 262 257 254 243 230 217 221 224 231 242 235 225 223 224 241 253 254 262 262 262 259 226 203 209 209 208
243 248 243 231 234 237 233 229 231 230 236 246 252 251 248 244 238 218 216 231 244 248 243 237 225 218 225 238 248 249 250 257 256 247 221 223 236 217
221 242 242 242 242 244 241 237 230 230 233 232 235 235 237 236 234 220 213 223 240 247 240 228 226 226 241 249 229 240 245 250 256 251 222 215 238 237
232 247 245 244 247 248 244 241 238 231 232 233 237 235 238 233 226 225 224 225 238 243 240 225 214 213 233 251 244 220 230 246 251 248 245 233 243 240
239 244 247 244 245 247 244 242 238 228 229 233 236 231 230 228 228 223 220 222 231 240 240 229 217 216 227 232 240 255 233 230 233 254 269 269 262 246
242 243 246 246 245 245 246 242 235 229 226 231 237 230 227 229 233 227 217 222 230 234 239 236 225 210 205 198 223 236 215 192 178 192 236 253 257 250
252 248 250 249 248 248 247 249 248 241 228 228 238 233 225 224 232 236 223 214 220 229 241 221 209 198 195 205 223 224 207 187 175 157 239 238 231 235
253 256 257 256 258 257 253 256 258 255 240 236 244 236 232 226 220 228 226 215 216 226 215 192 192 194 210 215 210 209 208 209 194 151 323 252 222 232